Home   Weather   Orlando   Past weeks
Flag for USA

Past Weather in Orlando, Florida, USA — Yesterday and Last 2 Weeks

Now
91 °F

Sunny.


Feels Like: 102 °F
Forecast: 92 / 77 °F
Wind: 8 mph from North

Location: Orlando Executive Airport

Current Time: Sep 16, 2019 at 4:38:16 pm

Latest Report: Sep 16, 2019 at 3:53 pm


Visibility: 10 mi

Pressure: 29.92 "Hg

Humidity: 60%

Dew Point: 75 °F

Location of OrlandoLocation

Past Weather in Orlando — Graph

°F

Orlando Temperature Yesterday

Maximum temperature yesterday: 89 °F (at 12:53 pm)
Minimum temperature yesterday: 77 °F (at 4:53 am)
Average temperature yesterday: 82 °F

High & Low Weather Summary for the Past Weeks

 TemperatureHumidityPressure
High95 °F (Sep 5, 2:53 pm)94% (Sep 10, 5:53 am)30.22 "Hg (Sep 10, 5:53 am)
Low72 °F (Sep 7, 4:53 am)33% (Sep 7, 4:53 pm)29.63 "Hg (Sep 4, 3:53 am)
Average83 °F73%29.95 "Hg
* Reported Sep 1 2:17 pm — Sep 16 2:53 pm, Orlando. Weather by CustomWeather, © 2019

Note: Actual official high and low records may vary slightly from our data, if they occured in-between our weather recording intervals... More about our weather records

Advertising

Orlando Weather History for the Previous 24 Hours

Scroll right to see more
 ConditionsComfort  
Time TempWeatherWind HumidityBarometerVisibility
2:53 pm
Mon, Sep 16
89 °FScattered clouds.13 mph63%29.94 "Hg10 mi
2:37 pm89 °FLight rain. Scattered clouds.14 mph61%29.95 "Hg1 mi
1:53 pm91 °FScattered clouds.12 mph52%29.96 "Hg10 mi
12:53 pm90 °FScattered clouds.9 mph56%29.97 "Hg10 mi
11:53 am88 °FPassing clouds.9 mph63%29.98 "Hg10 mi
11:04 am86 °FScattered clouds.10 mph67%29.99 "Hg10 mi
10:53 am86 °FPartly sunny.9 mph70%30.00 "Hg10 mi
10:38 am84 °FBroken clouds.9 mph74%30.00 "Hg10 mi
10:17 am84 °FScattered clouds.9 mph74%30.00 "Hg10 mi
9:53 am83 °FPartly sunny.9 mph77%30.00 "Hg10 mi
8:53 am80 °FLow clouds.8 mph85%29.99 "Hg9 mi
7:53 am78 °FPartly sunny.6 mph90%29.98 "Hg9 mi
7:25 am78 °FScattered clouds.8 mph90%29.96 "Hg8 mi
6:53 am78 °FClear.8 mph90%29.95 "Hg9 mi
5:53 am78 °FPassing clouds.7 mph90%29.94 "Hg9 mi
4:53 am78 °FPassing clouds.8 mph90%29.93 "Hg10 mi
4:25 am78 °FPassing clouds.8 mph90%29.92 "Hg10 mi
3:53 am78 °FPassing clouds.7 mph90%29.93 "Hg10 mi
3:05 am79 °FPassing clouds.7 mph88%29.92 "Hg10 mi
1:53 am79 °FClear.8 mph88%29.94 "Hg10 mi
12:53 am79 °FClear.8 mph84%29.94 "Hg10 mi
11:53 pm
Sun, Sep 15
80 °FClear.8 mph81%29.95 "Hg10 mi
10:53 pm80 °FClear.8 mph81%29.94 "Hg10 mi
9:53 pm81 °FClear.7 mph79%29.94 "Hg10 mi
8:53 pm82 °FClear.10 mph74%29.94 "Hg10 mi
7:53 pm84 °FPassing clouds.9 mph70%29.94 "Hg10 mi
6:53 pm84 °FSunny.9 mph70%29.93 "Hg10 mi
6:18 pm83 °FPartly sunny.10 mph72%29.92 "Hg10 mi
6:03 pm83 °FThundershowers. Overcast.10 mph72%29.92 "Hg10 mi
5:53 pm83 °FOvercast.8 mph72%29.92 "Hg10 mi
5:29 pm84 °FMore clouds than sun.12 mph72%29.91 "Hg10 mi
5:20 pm83 °FLight rain. Broken clouds.12 mph74%29.91 "Hg2 mi
Weather by CustomWeather, © 2019

See weather overview